| time (UTC) | temp F | wind direction | speed MPH | gust MPH | rain 1hr in | rain 24hr in | rain mn in | humidity % | barometer mb |
| 20260901032017 | 68 | 238 | 1.0 | 4.0 | 0.00 | 0.00 | 0.00 | 87 | 1018.1 |
| 20260901031535 | 68 | 250 | 1.0 | 5.0 | 0.00 | 0.00 | 0.00 | 86 | 1018.2 |
| 20260901031017 | 68 | 300 | 2.0 | 5.0 | 0.00 | 0.00 | 0.00 | 86 | 1018.2 |
| 20260901030506 | 68 | 247 | 2.0 | 4.0 | 0.00 | 0.00 | 0.00 | 87 | 1018.2 |
| 20260901030038 | 68 | 217 | 2.0 | 3.0 | 0.00 | 0.00 | 0.00 | 87 | 1018.2 |
| 20260901025513 | 68 | 238 | 0.0 | 2.0 | 0.00 | 0.00 | 0.00 | 87 | 1018.3 |
| 20260901025012 | 68 | 325 | 1.0 | 4.0 | 0.00 | 0.00 | 0.00 | 87 | 1018.4 |
| 20260901024531 | 68 | 265 | 0.0 | 4.0 | 0.00 | 0.00 | 0.00 | 86 | 1018.3 |
| 20260901024015 | 68 | 163 | 1.0 | 4.0 | 0.00 | 0.00 | 0.00 | 86 | 1018.4 |
| 20260901023512 | 68 | 190 | 2.0 | 5.0 | 0.00 | 0.00 | 0.00 | 86 | 1018.3 |
| 20260901023030 | 68 | 225 | 3.0 | 5.0 | 0.00 | 0.00 | 0.00 | 86 | 1018.3 |
| 20260901022514 | 68 | 238 | 2.0 | 4.0 | 0.00 | 0.00 | 0.00 | 87 | 1018.2 |
| 20260901022015 | 68 | 234 | 2.0 | 4.0 | 0.00 | 0.00 | 0.00 | 87 | 1018.3 |
| 20260901021531 | 68 | 215 | 2.0 | 3.0 | 0.00 | 0.00 | 0.00 | 86 | 1018.2 |
| 20260901021016 | 68 | 265 | 2.0 | 3.0 | 0.00 | 0.00 | 0.00 | 86 | 1018.2 |
| 20260901020517 | 68 | 229 | 2.0 | 3.0 | 0.00 | 0.00 | 0.00 | 86 | 1018.2 |
| 20260901020038 | 68 | 243 | 2.0 | 3.0 | 0.00 | 0.00 | 0.00 | 87 | 1018.2 |
| 20260901015520 | 68 | 247 | 1.0 | 3.0 | 0.00 | 0.00 | 0.00 | 86 | 1018.2 |
| 20260901015018 | 69 | 51 | 0.0 | 2.0 | 0.00 | 0.00 | 0.00 | 86 | 1018.3 |
| 20260901014524 | 69 | 178 | 0.0 | 3.0 | 0.00 | 0.00 | 0.00 | 85 | 1018.2 |
| 20260901014019 | 69 | 265 | 1.0 | 3.0 | 0.00 | 0.00 | 0.00 | 84 | 1018.3 |
| 20260901013514 | 69 | 325 | 0.0 | 3.0 | 0.00 | 0.00 | 0.00 | 85 | 1018.3 |
| 20260901013007 | 69 | 265 | 1.0 | 4.0 | 0.00 | 0.00 | 0.00 | 85 | 1018.3 |
| 20260901012502 | 69 | 212 | 1.0 | 4.0 | 0.00 | 0.00 | 0.00 | 84 | 1018.3 |
| 20260901012002 | 69 | 227 | 2.0 | 4.0 | 0.00 | 0.00 | 0.00 | 84 | 1018.3 |
| 20260901011514 | 69 | 221 | 2.0 | 4.0 | 0.00 | 0.00 | 0.00 | 83 | 1018.3 |
| 20260901011002 | 69 | 218 | 3.0 | 4.0 | 0.00 | 0.00 | 0.00 | 83 | 1018.2 |
| 20260901010506 | 69 | 247 | 2.0 | 4.0 | 0.00 | 0.00 | 0.00 | 83 | 1018.2 |
| 20260901010037 | 69 | 241 | 2.0 | 4.0 | 0.00 | 0.00 | 0.00 | 83 | 1018.3 |
| 20260901005509 | 70 | 208 | 2.0 | 4.0 | 0.00 | 0.00 | 0.00 | 83 | 1018.3 |
| 20260901005021 | 70 | 200 | 2.0 | 5.0 | 0.00 | 0.00 | 0.00 | 82 | 1018.2 |
| 20260901004523 | 69 | 215 | 2.0 | 5.0 | 0.00 | 0.00 | 0.00 | 83 | 1018.2 |
| 20260901004011 | 70 | 212 | 3.0 | 6.0 | 0.00 | 0.00 | 0.00 | 83 | 1018.2 |
| 20260901003517 | 70 | 205 | 3.0 | 6.0 | 0.00 | 0.00 | 0.00 | 82 | 1018.2 |
| 20260901003031 | 70 | 208 | 3.0 | 6.0 | 0.00 | 0.00 | 0.00 | 81 | 1018.2 |
| 20260901002517 | 70 | 219 | 3.0 | 6.0 | 0.00 | 0.00 | 0.00 | 81 | 1018.3 |
| 20260901002012 | 70 | 208 | 3.0 | 6.0 | 0.00 | 0.00 | 0.00 | 81 | 1018.2 |
| 20260901001503 | 71 | 205 | 2.0 | 5.0 | 0.00 | 0.00 | 0.00 | 80 | 1018.2 |
| 20260901001003 | 71 | 229 | 3.0 | 6.0 | 0.00 | 0.00 | 0.00 | 79 | 1018.1 |
| 20260901000503 | 70 | 225 | 3.0 | 6.0 | 0.00 | 0.00 | 0.00 | 79 | 1018.1 |
| 20260901000018 | 70 | 218 | 3.0 | 5.0 | 0.00 | 0.00 | 0.00 | 81 | 1018.1 |
| 20260831235507 | 70 | 215 | 3.0 | 5.0 | 0.00 | 0.00 | 0.00 | 81 | 1018.0 |
| 20260831235007 | 71 | 195 | 3.0 | 5.0 | 0.00 | 0.00 | 0.00 | 80 | 1018.0 |
| 20260831234518 | 71 | 221 | 3.0 | 7.0 | 0.00 | 0.00 | 0.00 | 77 | 1018.1 |
| 20260831234008 | 72 | 234 | 3.0 | 7.0 | 0.00 | 0.00 | 0.00 | 77 | 1018.1 |
| 20260831233508 | 72 | 232 | 3.0 | 7.0 | 0.00 | 0.00 | 0.00 | 76 | 1018.1 |
| 20260831233022 | 72 | 243 | 3.0 | 7.0 | 0.00 | 0.00 | 0.00 | 76 | 1018.2 |
| 20260831232509 | 72 | 212 | 3.0 | 6.0 | 0.00 | 0.00 | 0.00 | 76 | 1018.2 |
| 20260831232011 | 72 | 216 | 3.0 | 8.0 | 0.00 | 0.00 | 0.00 | 76 | 1018.3 |
| 20260831231536 | 72 | 218 | 4.0 | 8.0 | 0.00 | 0.00 | 0.00 | 78 | 1018.4 |
| 20260831231016 | 72 | 214 | 3.0 | 5.0 | 0.00 | 0.00 | 0.00 | 77 | 1018.4 |
| 20260831230517 | 72 | 221 | 2.0 | 6.0 | 0.00 | 0.00 | 0.00 | 77 | 1018.5 |
| 20260831230033 | 73 | 215 | 3.0 | 6.0 | 0.00 | 0.00 | 0.00 | 76 | 1018.5 |
| 20260831225502 | 73 | 229 | 4.0 | 6.0 | 0.00 | 0.00 | 0.00 | 74 | 1018.6 |
| 20260831225006 | 73 | 218 | 3.0 | 6.0 | 0.00 | 0.00 | 0.00 | 73 | 1018.6 |
| 20260831224533 | 73 | 219 | 4.0 | 7.0 | 0.00 | 0.00 | 0.00 | 73 | 1018.6 |
| 20260831224010 | 73 | 219 | 4.0 | 7.0 | 0.00 | 0.00 | 0.00 | 73 | 1018.6 |
| 20260831223506 | 73 | 225 | 4.0 | 7.0 | 0.00 | 0.00 | 0.00 | 73 | 1018.7 |
| 20260831223017 | 74 | 221 | 3.0 | 7.0 | 0.00 | 0.00 | 0.00 | 73 | 1018.6 |
| 20260831222511 | 74 | 227 | 4.0 | 7.0 | 0.00 | 0.00 | 0.00 | 72 | 1018.7 |
| 20260831222011 | 74 | 221 | 3.0 | 8.0 | 0.00 | 0.00 | 0.00 | 72 | 1018.7 |
| 20260831221525 | 74 | 219 | 3.0 | 8.0 | 0.00 | 0.00 | 0.00 | 71 | 1018.6 |
| 20260831221014 | 74 | 188 | 2.0 | 7.0 | 0.00 | 0.00 | 0.00 | 71 | 1018.7 |
| 20260831220514 | 74 | 225 | 5.0 | 7.0 | 0.00 | 0.00 | 0.00 | 70 | 1018.7 |
| 20260831220030 | 74 | 215 | 4.0 | 8.0 | 0.00 | 0.00 | 0.00 | 71 | 1018.6 |
| 20260831215522 | 74 | 224 | 5.0 | 10.0 | 0.00 | 0.00 | 0.00 | 70 | 1018.6 |
| 20260831215019 | 74 | 241 | 6.0 | 10.0 | 0.00 | 0.00 | 0.00 | 70 | 1018.6 |
| 20260831214543 | 74 | 212 | 6.0 | 11.0 | 0.00 | 0.00 | 0.00 | 70 | 1018.6 |
| 20260831214010 | 74 | 200 | 5.0 | 11.0 | 0.00 | 0.00 | 0.00 | 69 | 1018.6 |
| 20260831213506 | 75 | 225 | 5.0 | 9.0 | 0.00 | 0.00 | 0.00 | 69 | 1018.5 |
| 20260831213019 | 75 | 229 | 4.0 | 11.0 | 0.00 | 0.00 | 0.00 | 68 | 1018.6 |
| 20260831212506 | 75 | 207 | 5.0 | 11.0 | 0.00 | 0.00 | 0.00 | 67 | 1018.6 |
| 20260831212018 | 76 | 219 | 5.0 | 11.0 | 0.00 | 0.00 | 0.00 | 67 | 1018.6 |
| 20260831211525 | 76 | 217 | 3.0 | 13.0 | 0.00 | 0.00 | 0.00 | 66 | 1018.6 |
| 20260831211019 | 76 | 210 | 6.0 | 15.0 | 0.00 | 0.00 | 0.00 | 64 | 1018.5 |
| 20260831210514 | 77 | 188 | 7.0 | 15.0 | 0.00 | 0.00 | 0.00 | 63 | 1018.4 |
| 20260831210032 | 77 | 163 | 6.0 | 11.0 | 0.00 | 0.00 | 0.00 | 62 | 1018.4 |
| 20260831205514 | 78 | 218 | 3.0 | 10.0 | 0.00 | 0.00 | 0.00 | 66 | 1018.4 |
| 20260831205016 | 77 | 219 | 3.0 | 8.0 | 0.00 | 0.00 | 0.00 | 64 | 1018.5 |
| 20260831204537 | 77 | 196 | 4.0 | 7.0 | 0.00 | 0.00 | 0.00 | 64 | 1018.6 |
| 20260831204015 | 76 | 236 | 2.0 | 10.0 | 0.00 | 0.00 | 0.00 | 64 | 1018.7 |
| 20260831203514 | 76 | 225 | 5.0 | 10.0 | 0.00 | 0.00 | 0.00 | 63 | 1018.7 |
| 20260831203038 | 76 | 196 | 6.0 | 15.0 | 0.00 | 0.00 | 0.00 | 63 | 1018.7 |
| 20260831202517 | 76 | 178 | 6.0 | 15.0 | 0.00 | 0.00 | 0.00 | 62 | 1018.6 |
| 20260831202008 | 77 | 178 | 7.0 | 13.0 | 0.00 | 0.00 | 0.00 | 60 | 1018.6 |
| 20260831201520 | 78 | 191 | 8.0 | 17.0 | 0.00 | 0.00 | 0.00 | 58 | 1018.5 |
| 20260831201008 | 78 | 219 | 7.0 | 17.0 | 0.00 | 0.00 | 0.00 | 58 | 1018.6 |
| 20260831200511 | 78 | 215 | 7.0 | 17.0 | 0.00 | 0.00 | 0.00 | 58 | 1018.8 |
| 20260831200026 | 78 | 205 | 8.0 | 17.0 | 0.00 | 0.00 | 0.00 | 58 | 1018.7 |
| 20260831195514 | 78 | 247 | 7.0 | 17.0 | 0.00 | 0.00 | 0.00 | 58 | 1018.8 |
| 20260831195012 | 78 | 186 | 11.0 | 19.0 | 0.00 | 0.00 | 0.00 | 57 | 1018.7 |
| 20260831194529 | 79 | 219 | 7.0 | 19.0 | 0.00 | 0.00 | 0.00 | 56 | 1018.8 |
| 20260831194021 | 79 | 207 | 4.0 | 11.0 | 0.00 | 0.00 | 0.00 | 56 | 1018.8 |
| 20260831193516 | 79 | 178 | 7.0 | 11.0 | 0.00 | 0.00 | 0.00 | 57 | 1019.0 |
| 20260831193043 | 79 | 231 | 4.0 | 14.0 | 0.00 | 0.00 | 0.00 | 56 | 1019.1 |
| 20260831192516 | 79 | 212 | 8.0 | 14.0 | 0.00 | 0.00 | 0.00 | 57 | 1019.1 |
| 20260831192022 | 79 | 250 | 9.0 | 14.0 | 0.00 | 0.00 | 0.00 | 59 | 1019.1 |
| 20260831191544 | 78 | 169 | 6.0 | 12.0 | 0.00 | 0.00 | 0.00 | 60 | 1019.1 |
| 20260831191018 | 78 | 178 | 3.0 | 12.0 | 0.00 | 0.00 | 0.00 | 62 | 1019.1 |
| 20260831190510 | 78 | 133 | 3.0 | 13.0 | 0.00 | 0.00 | 0.00 | 60 | 1019.2 |
| 20260831190027 | 78 | 229 | 7.0 | 13.0 | 0.00 | 0.00 | 0.00 | 59 | 1019.3 |
| 20260831185513 | 78 | 237 | 7.0 | 12.0 | 0.00 | 0.00 | 0.00 | 61 | 1019.3 |
| 20260831185011 | 77 | 158 | 5.0 | 8.0 | 0.00 | 0.00 | 0.00 | 62 | 1019.3 |
| 20260831184528 | 76 | 187 | 4.0 | 10.0 | 0.00 | 0.00 | 0.00 | 63 | 1019.4 |
| 20260831184017 | 76 | 173 | 4.0 | 10.0 | 0.00 | 0.00 | 0.00 | 62 | 1019.4 |
| 20260831183517 | 76 | 236 | 6.0 | 9.0 | 0.00 | 0.00 | 0.00 | 60 | 1019.4 |
| 20260831183031 | 76 | 196 | 3.0 | 12.0 | 0.00 | 0.00 | 0.00 | 61 | 1019.3 |
| 20260831182514 | 76 | 241 | 5.0 | 12.0 | 0.00 | 0.00 | 0.00 | 60 | 1019.5 |
| 20260831182018 | 77 | 208 | 8.0 | 12.0 | 0.00 | 0.00 | 0.00 | 59 | 1019.5 |
| 20260831181530 | 77 | 160 | 4.0 | 10.0 | 0.00 | 0.00 | 0.00 | 61 | 1019.5 |
| 20260831181022 | 77 | 146 | 4.0 | 12.0 | 0.00 | 0.00 | 0.00 | 62 | 1019.6 |
| 20260831180522 | 77 | 175 | 7.0 | 12.0 | 0.00 | 0.00 | 0.00 | 57 | 1019.6 |
| 20260831180036 | 77 | 219 | 5.0 | 12.0 | 0.00 | 0.00 | 0.00 | 60 | 1019.6 |
| 20260831175519 | 76 | 219 | 4.0 | 13.0 | 0.00 | 0.00 | 0.00 | 58 | 1019.7 |
| 20260831175012 | 76 | 190 | 8.0 | 13.0 | 0.00 | 0.00 | 0.00 | 60 | 1019.7 |
| 20260831174526 | 76 | 227 | 4.0 | 11.0 | 0.00 | 0.00 | 0.00 | 61 | 1019.8 |
| 20260831174017 | 76 | 196 | 5.0 | 11.0 | 0.00 | 0.00 | 0.00 | 60 | 1019.9 |
| 20260831173514 | 76 | 156 | 3.0 | 10.0 | 0.00 | 0.00 | 0.00 | 63 | 1019.9 |
| 20260831173040 | 76 | 157 | 3.0 | 10.0 | 0.00 | 0.00 | 0.00 | 55 | 1019.9 |
| 20260831172515 | 76 | 189 | 5.0 | 10.0 | 0.00 | 0.00 | 0.00 | 57 | 1020.0 |
| 20260831172021 | 76 | 178 | 6.0 | 10.0 | 0.00 | 0.00 | 0.00 | 56 | 1020.0 |
| 20260831171535 | 76 | 229 | 3.0 | 7.0 | 0.00 | 0.00 | 0.00 | 55 | 1020.0 |
| 20260831171017 | 76 | 212 | 3.0 | 9.0 | 0.00 | 0.00 | 0.00 | 54 | 1020.0 |
| 20260831170523 | 77 | 254 | 2.0 | 9.0 | 0.00 | 0.00 | 0.00 | 52 | 1020.2 |
| 20260831170036 | 77 | 31 | 3.0 | 8.0 | 0.00 | 0.00 | 0.00 | 54 | 1020.3 |
| 20260831165518 | 77 | 34 | 1.0 | 5.0 | 0.00 | 0.00 | 0.00 | 57 | 1020.4 |
| 20260831165018 | 76 | 265 | 0.0 | 8.0 | 0.00 | 0.00 | 0.00 | 53 | 1020.5 |
| 20260831164525 | 76 | 137 | 2.0 | 8.0 | 0.00 | 0.00 | 0.00 | 55 | 1020.5 |
| 20260831164011 | 76 | 63 | 3.0 | 7.0 | 0.00 | 0.00 | 0.00 | 53 | 1020.6 |
| 20260831163513 | 76 | 225 | 3.0 | 7.0 | 0.00 | 0.00 | 0.00 | 52 | 1020.6 |
| 20260831163032 | 76 | 193 | 3.0 | 7.0 | 0.00 | 0.00 | 0.00 | 54 | 1020.7 |
| 20260831162518 | 75 | 9 | 1.0 | 6.0 | 0.00 | 0.00 | 0.00 | 56 | 1020.8 |
| 20260831162013 | 75 | 26 | 3.0 | 6.0 | 0.00 | 0.00 | 0.00 | 54 | 1020.7 |
| 20260831161508 | 75 | 51 | 1.0 | 7.0 | 0.00 | 0.00 | 0.00 | 55 | 1020.8 |
| 20260831161007 | 74 | 67 | 3.0 | 9.0 | 0.00 | 0.00 | 0.00 | 58 | 1020.8 |
| 20260831160517 | 75 | 65 | 5.0 | 9.0 | 0.00 | 0.00 | 0.00 | 57 | 1020.9 |
| 20260831160025 | 74 | 27 | 3.0 | 9.0 | 0.00 | 0.00 | 0.00 | 56 | 1020.9 |
| 20260831155507 | 74 | 205 | 2.0 | 7.0 | 0.00 | 0.00 | 0.00 | 54 | 1020.9 |
| 20260831155018 | 74 | 79 | 3.0 | 12.0 | 0.00 | 0.00 | 0.00 | 56 | 1021.0 |
| 20260831154611 | 74 | 34 | 3.0 | 13.0 | 0.00 | 0.00 | 0.00 | 59 | 1021.0 |
| 20260831154010 | 74 | 41 | 8.0 | 13.0 | 0.00 | 0.00 | 0.00 | 60 | 1021.0 |
| 20260831153511 | 75 | 34 | 3.0 | 8.0 | 0.00 | 0.00 | 0.00 | 56 | 1021.0 |
| 20260831153027 | 74 | 34 | 2.0 | 10.0 | 0.00 | 0.00 | 0.00 | 60 | 1021.0 |
| 20260831152514 | 73 | 59 | 3.0 | 10.0 | 0.00 | 0.00 | 0.00 | 61 | 1021.0 |
| 20260831152018 | 73 | 15 | 4.0 | 11.0 | 0.00 | 0.00 | 0.00 | 64 | 1020.9 |
| 20260831151536 | 74 | 346 | 6.0 | 11.0 | 0.00 | 0.00 | 0.00 | 59 | 1020.9 |
| 20260831151016 | 74 | 78 | 3.0 | 9.0 | 0.00 | 0.00 | 0.00 | 63 | 1021.0 |
| 20260831150516 | 73 | 47 | 5.0 | 9.0 | 0.00 | 0.00 | 0.00 | 62 | 1021.1 |
| 20260831150033 | 73 | 93 | 1.0 | 8.0 | 0.00 | 0.00 | 0.00 | 68 | 1021.1 |
| 20260831145506 | 73 | 93 | 3.0 | 9.0 | 0.00 | 0.00 | 0.00 | 69 | 1021.0 |
| 20260831145017 | 72 | 9 | 1.0 | 9.0 | 0.00 | 0.00 | 0.00 | 72 | 1021.0 |
| 20260831144516 | 72 | 55 | 5.0 | 11.0 | 0.00 | 0.00 | 0.00 | 70 | 1021.0 |
| 20260831144008 | 72 | 59 | 3.0 | 11.0 | 0.00 | 0.00 | 0.00 | 74 | 1021.2 |
| 20260831143512 | 71 | 56 | 4.0 | 11.0 | 0.00 | 0.00 | 0.00 | 74 | 1021.1 |
| 20260831143022 | 71 | 22 | 5.0 | 11.0 | 0.00 | 0.00 | 0.00 | 72 | 1021.1 |
| 20260831142510 | 70 | 341 | 5.0 | 9.0 | 0.00 | 0.00 | 0.00 | 74 | 1021.1 |
| 20260831142018 | 70 | 9 | 3.0 | 8.0 | 0.00 | 0.00 | 0.00 | 74 | 1021.2 |
| 20260831141527 | 70 | 9 | 3.0 | 7.0 | 0.00 | 0.00 | 0.00 | 77 | 1021.2 |
| 20260831141013 | 69 | 26 | 2.0 | 7.0 | 0.00 | 0.00 | 0.00 | 79 | 1021.2 |
| 20260831140514 | 68 | 64 | 1.0 | 8.0 | 0.00 | 0.00 | 0.00 | 80 | 1021.3 |
| 20260831140033 | 68 | 55 | 3.0 | 8.0 | 0.00 | 0.00 | 0.00 | 82 | 1021.3 |
| 20260831135514 | 67 | 51 | 2.0 | 8.0 | 0.00 | 0.00 | 0.00 | 85 | 1021.3 |
| 20260831135019 | 67 | 67 | 2.0 | 8.0 | 0.00 | 0.00 | 0.00 | 86 | 1021.4 |
| 20260831134540 | 66 | 51 | 3.0 | 7.0 | 0.00 | 0.00 | 0.00 | 86 | 1021.3 |
| 20260831134008 | 66 | 59 | 2.0 | 7.0 | 0.00 | 0.00 | 0.00 | 86 | 1021.3 |
| 20260831133507 | 66 | 22 | 2.0 | 8.0 | 0.00 | 0.00 | 0.00 | 89 | 1021.4 |
| 20260831133019 | 65 | 22 | 4.0 | 10.0 | 0.00 | 0.00 | 0.00 | 89 | 1021.4 |
| 20260831132510 | 64 | 27 | 5.0 | 10.0 | 0.00 | 0.00 | 0.00 | 91 | 1021.3 |
| 20260831132011 | 63 | 75 | 4.0 | 8.0 | 0.00 | 0.00 | 0.00 | 90 | 1021.4 |
| 20260831131529 | 64 | 67 | 3.0 | 6.0 | 0.00 | 0.00 | 0.00 | 91 | 1021.3 |
| 20260831131011 | 63 | 26 | 1.0 | 5.0 | 0.00 | 0.00 | 0.00 | 92 | 1021.4 |
| 20260831130513 | 62 | 22 | 2.0 | 5.0 | 0.00 | 0.00 | 0.00 | 93 | 1021.3 |
| 20260831130038 | 62 | 80 | 2.0 | 8.0 | 0.00 | 0.00 | 0.00 | 93 | 1021.4 |
| 20260831125522 | 62 | 34 | 3.0 | 8.0 | 0.00 | 0.00 | 0.00 | 93 | 1021.4 |
| 20260831125015 | 63 | 321 | 2.0 | 8.0 | 0.00 | 0.00 | 0.00 | 94 | 1021.4 |
| 20260831124545 | 62 | 313 | 3.0 | 9.0 | 0.00 | 0.00 | 0.00 | 94 | 1021.4 |
| 20260831124019 | 62 | 21 | 5.0 | 9.0 | 0.00 | 0.00 | 0.00 | 95 | 1021.4 |
| 20260831123518 | 61 | 51 | 4.0 | 8.0 | 0.00 | 0.00 | 0.00 | 95 | 1021.5 |
| 20260831123035 | 61 | 36 | 5.0 | 8.0 | 0.00 | 0.00 | 0.00 | 95 | 1021.5 |
| 20260831122520 | 61 | 48 | 4.0 | 8.0 | 0.00 | 0.00 | 0.00 | 95 | 1021.4 |
| 20260831122010 | 61 | 26 | 4.0 | 9.0 | 0.00 | 0.00 | 0.00 | 95 | 1021.4 |
| 20260831121543 | 61 | 39 | 3.0 | 10.0 | 0.00 | 0.00 | 0.00 | 95 | 1021.3 |
| 20260831121011 | 60 | 61 | 5.0 | 10.0 | 0.00 | 0.00 | 0.00 | 95 | 1021.3 |
| 20260831120511 | 60 | 51 | 6.0 | 11.0 | 0.00 | 0.00 | 0.00 | 95 | 1021.3 |
| 20260831120034 | 60 | 9 | 6.0 | 11.0 | 0.00 | 0.00 | 0.00 | 95 | 1021.4 |
| 20260831115512 | 60 | 17 | 5.0 | 10.0 | 0.00 | 0.00 | 0.00 | 95 | 1021.4 |
| 20260831115017 | 60 | 34 | 6.0 | 10.0 | 0.00 | 0.00 | 0.00 | 95 | 1021.4 |
| 20260831114533 | 60 | 344 | 5.0 | 10.0 | 0.00 | 0.00 | 0.00 | 95 | 1021.3 |
| 20260831114016 | 60 | 25 | 6.0 | 10.0 | 0.00 | 0.00 | 0.00 | 95 | 1021.2 |
| 20260831113516 | 60 | 51 | 4.0 | 9.0 | 0.00 | 0.00 | 0.00 | 95 | 1021.3 |
| 20260831113032 | 60 | 76 | 2.0 | 5.0 | 0.00 | 0.00 | 0.00 | 95 | 1021.3 |
| 20260831112518 | 59 | 34 | 3.0 | 5.0 | 0.00 | 0.00 | 0.00 | 95 | 1021.2 |
| 20260831112015 | 59 | 41 | 1.0 | 5.0 | 0.00 | 0.00 | 0.00 | 95 | 1021.1 |
| 20260831111531 | 59 | 360 | 1.0 | 5.0 | 0.00 | 0.00 | 0.00 | 95 | 1021.0 |
| 20260831111023 | 59 | 9 | 1.0 | 5.0 | 0.00 | 0.00 | 0.00 | 95 | 1020.9 |
| 20260831110510 | 59 | 336 | 2.0 | 8.0 | 0.00 | 0.00 | 0.00 | 95 | 1020.7 |
| 20260831110028 | 58 | 28 | 5.0 | 8.0 | 0.00 | 0.00 | 0.00 | 95 | 1020.7 |
| 20260831105513 | 58 | 30 | 2.0 | 4.0 | 0.00 | 0.00 | 0.00 | 95 | 1020.7 |
| 20260831105014 | 58 | 319 | 2.0 | 6.0 | 0.00 | 0.00 | 0.00 | 95 | 1020.6 |
| 20260831104529 | 58 | 9 | 1.0 | 8.0 | 0.00 | 0.00 | 0.00 | 94 | 1020.5 |
| 20260831104013 | 58 | 34 | 3.0 | 9.0 | 0.00 | 0.00 | 0.00 | 94 | 1020.5 |
| 20260831103504 | 58 | 336 | 3.0 | 9.0 | 0.00 | 0.00 | 0.00 | 94 | 1020.5 |
| 20260831103014 | 57 | 38 | 5.0 | 9.0 | 0.00 | 0.00 | 0.00 | 94 | 1020.5 |
| 20260831102506 | 57 | 44 | 5.0 | 7.0 | 0.00 | 0.00 | 0.00 | 94 | 1020.5 |
| 20260831102007 | 57 | 36 | 3.0 | 5.0 | 0.00 | 0.00 | 0.00 | 94 | 1020.5 |
| 20260831101522 | 57 | 28 | 3.0 | 4.0 | 0.00 | 0.00 | 0.00 | 94 | 1020.6 |
| 20260831101012 | 57 | 76 | 1.0 | 3.0 | 0.00 | 0.00 | 0.00 | 94 | 1020.6 |
| 20260831100508 | 57 | 178 | 0.0 | 2.0 | 0.00 | 0.00 | 0.00 | 94 | 1020.5 |
| 20260831100003 | 57 | 196 | 1.0 | 2.0 | 0.00 | 0.00 | 0.00 | 94 | 1020.5 |
| 20260831095502 | 57 | 232 | 1.0 | 3.0 | 0.00 | 0.00 | 0.00 | 94 | 1020.5 |
| 20260831095002 | 58 | 265 | 0.0 | 4.0 | 0.00 | 0.00 | 0.00 | 94 | 1020.4 |
| 20260831094505 | 58 | 325 | 1.0 | 4.0 | 0.00 | 0.00 | 0.00 | 94 | 1020.4 |
| 20260831094003 | 58 | 321 | 2.0 | 4.0 | 0.00 | 0.00 | 0.00 | 94 | 1020.4 |
| 20260831093504 | 58 | 9 | 1.0 | 5.0 | 0.00 | 0.00 | 0.00 | 94 | 1020.4 |
| 20260831093016 | 58 | 46 | 2.0 | 6.0 | 0.00 | 0.00 | 0.00 | 94 | 1020.3 |
| 20260831092504 | 58 | 26 | 2.0 | 7.0 | 0.00 | 0.00 | 0.00 | 94 | 1020.2 |
| 20260831092004 | 58 | 42 | 3.0 | 7.0 | 0.00 | 0.00 | 0.00 | 94 | 1020.2 |
| 20260831091513 | 58 | 67 | 3.0 | 6.0 | 0.00 | 0.00 | 0.00 | 93 | 1020.1 |
| 20260831091007 | 58 | 46 | 1.0 | 4.0 | 0.00 | 0.00 | 0.00 | 94 | 1020.1 |
| 20260831090507 | 58 | 38 | 2.0 | 4.0 | 0.00 | 0.00 | 0.00 | 94 | 1020.1 |
| 20260831090016 | 58 | 22 | 1.0 | 3.0 | 0.00 | 0.00 | 0.00 | 94 | 1020.1 |
| 20260831085512 | 58 | 34 | 1.0 | 3.0 | 0.00 | 0.00 | 0.00 | 93 | 1020.0 |
| 20260831085012 | 58 | 238 | 0.0 | 2.0 | 0.00 | 0.00 | 0.00 | 94 | 1020.0 |
| 20260831084505 | 58 | 34 | 0.0 | 3.0 | 0.00 | 0.00 | 0.00 | 93 | 1019.9 |
| 20260831084002 | 58 | 221 | 1.0 | 3.0 | 0.00 | 0.00 | 0.00 | 94 | 1020.0 |
| 20260831083503 | 58 | 178 | 0.0 | 2.0 | 0.00 | 0.00 | 0.00 | 93 | 1019.9 |
| 20260831083004 | 58 | 265 | 1.0 | 2.0 | 0.00 | 0.00 | 0.00 | 93 | 1019.7 |
| 20260831082504 | 59 | 9 | 1.0 | 2.0 | 0.00 | 0.00 | 0.00 | 93 | 1019.7 |
| 20260831082005 | 59 | 309 | 1.0 | 2.0 | 0.00 | 0.00 | 0.00 | 93 | 1019.6 |
| 20260831081511 | 59 | 221 | 0.0 | 2.0 | 0.00 | 0.00 | 0.00 | 93 | 1019.6 |
| 20260831081007 | 59 | 9 | 0.0 | 2.0 | 0.00 | 0.00 | 0.00 | 93 | 1019.6 |
| 20260831080512 | 59 | 221 | 1.0 | 2.0 | 0.00 | 0.00 | 0.00 | 93 | 1019.6 |
| 20260831080015 | 59 | 178 | 0.0 | 3.0 | 0.00 | 0.00 | 0.00 | 93 | 1019.5 |
| 20260831075514 | 59 | 178 | 1.0 | 3.0 | 0.00 | 0.00 | 0.00 | 93 | 1019.4 |
| 20260831075013 | 59 | 254 | 1.0 | 3.0 | 0.00 | 0.00 | 0.00 | 93 | 1019.4 |
| 20260831074525 | 60 | 265 | 1.0 | 3.0 | 0.00 | 0.00 | 0.00 | 93 | 1019.4 |
| 20260831074016 | 60 | 238 | 1.0 | 3.0 | 0.00 | 0.00 | 0.00 | 93 | 1019.5 |
| 20260831073518 | 60 | 265 | 1.0 | 2.0 | 0.00 | 0.00 | 0.00 | 92 | 1019.5 |
| 20260831073033 | 60 | 238 | 0.0 | 2.0 | 0.00 | 0.00 | 0.00 | 92 | 1019.5 |
| 20260831071509 | 60 | 67 | 0.0 | 2.0 | 0.00 | 0.00 | 0.00 | 92 | 1019.4 |
| 20260831071006 | 60 | 126 | 1.0 | 3.0 | 0.00 | 0.00 | 0.00 | 92 | 1019.3 |
| 20260831070508 | 60 | 265 | 1.0 | 3.0 | 0.00 | 0.00 | 0.00 | 92 | 1019.2 |
| 20260831070015 | 60 | 309 | 0.0 | 2.0 | 0.00 | 0.00 | 0.00 | 92 | 1019.2 |
| 20260831065509 | 61 | 291 | 0.0 | 2.0 | 0.00 | 0.00 | 0.00 | 92 | 1019.2 |
| 20260831065005 | 61 | 9 | 1.0 | 3.0 | 0.00 | 0.00 | 0.00 | 92 | 1019.2 |
| 20260831064517 | 61 | 325 | 1.0 | 3.0 | 0.00 | 0.00 | 0.00 | 92 | 1019.2 |
| 20260831064010 | 61 | 9 | 1.0 | 2.0 | 0.00 | 0.00 | 0.00 | 92 | 1019.3 |
| 20260831063511 | 61 | 51 | 0.0 | 3.0 | 0.00 | 0.00 | 0.00 | 91 | 1019.3 |
| 20260831063025 | 61 | 51 | 0.0 | 3.0 | 0.00 | 0.00 | 0.00 | 91 | 1019.3 |
| 20260831062517 | 61 | 309 | 1.0 | 3.0 | 0.00 | 0.00 | 0.00 | 91 | 1019.3 |
| 20260831062014 | 61 | 146 | 1.0 | 3.0 | 0.00 | 0.00 | 0.00 | 91 | 1019.3 |
| 20260831061531 | 61 | 196 | 1.0 | 3.0 | 0.00 | 0.00 | 0.00 | 91 | 1019.3 |
| 20260831061020 | 61 | 178 | 1.0 | 3.0 | 0.00 | 0.00 | 0.00 | 91 | 1019.3 |
| 20260831060503 | 61 | 137 | 0.0 | 2.0 | 0.00 | 0.00 | 0.00 | 91 | 1019.3 |
| 20260831060012 | 61 | 67 | 1.0 | 3.0 | 0.00 | 0.00 | 0.00 | 90 | 1019.3 |
| 20260831055506 | 62 | 212 | 1.0 | 3.0 | 0.00 | 0.00 | 0.00 | 90 | 1019.3 |
| 20260831055008 | 62 | 76 | 1.0 | 3.0 | 0.00 | 0.00 | 0.00 | 89 | 1019.1 |
| 20260831054514 | 62 | 247 | 2.0 | 3.0 | 0.00 | 0.00 | 0.00 | 89 | 1019.1 |
| 20260831054007 | 62 | 238 | 1.0 | 2.0 | 0.00 | 0.00 | 0.00 | 89 | 1019.2 |
| 20260831053515 | 62 | 146 | 0.0 | 4.0 | 0.00 | 0.00 | 0.00 | 89 | 1019.1 |
| 20260831053041 | 62 | 309 | 1.0 | 4.0 | 0.00 | 0.00 | 0.00 | 88 | 1019.0 |
| 20260831052510 | 63 | 67 | 2.0 | 5.0 | 0.00 | 0.00 | 0.00 | 88 | 1019.0 |
| 20260831052011 | 63 | 26 | 2.0 | 5.0 | 0.00 | 0.00 | 0.00 | 88 | 1019.0 |
| 20260831051532 | 63 | 34 | 3.0 | 8.0 | 0.00 | 0.00 | 0.00 | 87 | 1018.9 |
| 20260831051020 | 63 | 336 | 2.0 | 8.0 | 0.00 | 0.00 | 0.00 | 87 | 1018.9 |
| 20260831050514 | 63 | 15 | 4.0 | 7.0 | 0.00 | 0.00 | 0.00 | 86 | 1018.8 |
| 20260831050032 | 63 | 39 | 3.0 | 7.0 | 0.00 | 0.00 | 0.00 | 86 | 1018.9 |
| 20260831045514 | 64 | 76 | 4.0 | 7.0 | 0.00 | 0.00 | 0.00 | 84 | 1018.9 |
| 20260831045004 | 65 | 24 | 3.0 | 7.0 | 0.00 | 0.00 | 0.00 | 85 | 1018.8 |
| 20260831044514 | 64 | 321 | 3.0 | 7.0 | 0.00 | 0.00 | 0.00 | 86 | 1018.8 |
| 20260831044007 | 64 | 19 | 3.0 | 6.0 | 0.00 | 0.00 | 0.00 | 85 | 1018.8 |
| 20260831043508 | 64 | 20 | 3.0 | 5.0 | 0.00 | 0.00 | 0.00 | 83 | 1018.7 |
| 20260831043017 | 65 | 319 | 1.0 | 5.0 | 0.00 | 0.00 | 0.00 | 82 | 1018.6 |
| 20260831042514 | 66 | 26 | 2.0 | 7.0 | 0.00 | 0.00 | 0.00 | 83 | 1018.5 |
| 20260831042010 | 66 | 340 | 2.0 | 7.0 | 0.00 | 0.00 | 0.00 | 83 | 1018.5 |
| 20260831041531 | 65 | 9 | 2.0 | 7.0 | 0.00 | 0.00 | 0.00 | 83 | 1018.5 |
| 20260831041014 | 65 | 13 | 3.0 | 5.0 | 0.00 | 0.00 | 0.00 | 83 | 1018.6 |
| 20260831040514 | 66 | 9 | 2.0 | 9.0 | 0.00 | 0.00 | 0.00 | 82 | 1018.5 |
| 20260831040035 | 66 | 9 | 3.0 | 9.0 | 0.00 | 0.00 | 0.00 | 82 | 1018.4 |
| 20260831035514 | 66 | 32 | 6.0 | 9.0 | 0.00 | 0.00 | 0.00 | 83 | 1018.3 |
| 20260831035017 | 66 | 51 | 5.0 | 10.0 | 0.00 | 0.00 | 0.00 | 82 | 1018.4 |
| 20260831034530 | 67 | 34 | 1.0 | 10.0 | 0.00 | 0.00 | 0.00 | 80 | 1018.4 |
| 20260831034015 | 67 | 67 | 5.0 | 10.0 | 0.00 | 0.00 | 0.00 | 80 | 1018.5 |
| 20260831033516 | 67 | 32 | 2.0 | 7.0 | 0.00 | 0.00 | 0.00 | 81 | 1018.4 |
| 20260831033027 | 66 | 9 | 1.0 | 5.0 | 0.00 | 0.00 | 0.00 | 81 | 1018.5 |
| 20260831032509 | 66 | 314 | 2.0 | 5.0 | 0.00 | 0.00 | 0.00 | 81 | 1018.6 |